EA1IDU Weather Reports


Display with metric or nautical units.
time (UTC)temp
F
wind
direction
speed
MPH
gust
MPH
rain 1hr
in
rain 24hr
in
rain mn
in
humidity
%
barometer
mb
20260508135114 49 214 1.0 4.0 0.06 0.22 0.07 88 1012.2
20260508134108 48 173 3.0 4.0 0.06 0.22 0.07 89 1012.4
20260508133103 48 56 2.0 4.0 0.06 0.22 0.07 91 1012.3
20260508132058 47 211 2.0 4.0 0.07 0.22 0.07 90 1012.8
20260508131054 47 228 8.0 11.0 0.05 0.20 0.05 89 1013.0
20260508130049 48 209 9.0 14.0 0.02 0.18 0.02 86 1013.0
20260508125104 50 215 11.0 20.0 0.01 0.17 0.01 84 1013.0
20260508124038 51 217 11.0 18.0 0.01 0.17 0.01 81 1012.6
20260508123033 51 195 11.0 17.0 0.01 0.17 0.01 84 1012.3
20260508122028 52 203 9.0 13.0 0.00 0.15 0.00 79 1012.3
20260508121023 54 204 8.0 14.0 0.00 0.15 0.00 74 1012.3
20260508120018 54 225 8.0 11.0 0.00 0.15 0.00 73 1012.3
20260508115133 54 191 10.0 14.0 0.00 0.15 0.00 72 1012.4
20260508114108 55 215 9.0 14.0 0.00 0.15 0.00 70 1012.4
20260508113104 55 165 8.0 11.0 0.00 0.15 0.00 70 1012.6
20260508112058 55 164 8.0 11.0 0.00 0.15 0.00 70 1012.5
20260508111053 54 195 10.0 15.0 0.00 0.15 0.00 69 1012.5
20260508110048 55 209 7.0 13.0 0.00 0.15 0.00 68 1012.4
20260508105103 55 148 4.0 8.0 0.00 0.15 0.00 69 1012.2
20260508104037 54 145 4.0 7.0 0.00 0.15 0.00 68 1012.0
20260508103052 54 102 4.0 8.0 0.00 0.15 0.00 69 1011.9
20260508102027 54 171 2.0 7.0 0.00 0.15 0.00 70 1012.2
20260508101023 54 160 5.0 11.0 0.00 0.15 0.00 70 1012.4
20260508100017 54 178 5.0 11.0 0.00 0.15 0.00 70 1012.4
20260508095112 53 182 7.0 14.0 0.00 0.15 0.00 72 1012.2
20260508094109 52 304 0.0 2.0 0.00 0.15 0.00 80 1012.2
20260508093103 52 0.0 2.0 0.00 0.15 0.00 80 1012.3
20260508092059 51 0.0 0.0 0.00 0.15 0.00 82 1012.0
20260508091053 51 338 0.0 2.0 0.00 0.15 0.00 82 1012.1
20260508090049 50 9 1.0 2.0 0.00 0.15 0.00 82 1012.0
20260508085043 49 21 2.0 4.0 0.00 0.15 0.00 83 1011.9
20260508084039 49 37 2.0 4.0 0.00 0.15 0.00 82 1012.0
20260508083033 49 19 2.0 4.0 0.00 0.15 0.00 82 1012.0
20260508082028 49 26 2.0 4.0 0.00 0.15 0.00 82 1012.1
20260508081023 49 27 2.0 4.0 0.00 0.15 0.00 82 1011.9
20260508080018 49 35 2.0 4.0 0.00 0.15 0.00 82 1012.1
20260508075114 48 17 1.0 4.0 0.00 0.15 0.00 84 1012.0
20260508074109 48 13 2.0 7.0 0.00 0.15 0.00 85 1011.9
20260508073103 47 34 3.0 6.0 0.00 0.15 0.00 86 1012.0
20260508072058 47 15 2.0 4.0 0.00 0.15 0.00 86 1012.1
20260508071114 46 9 4.0 9.0 0.00 0.15 0.00 86 1012.0
20260508070049 46 10 3.0 6.0 0.00 0.15 0.00 86 1012.2
20260508065044 45 15 2.0 6.0 0.00 0.15 0.00 87 1012.0
20260508064040 45 9 0.0 4.0 0.00 0.15 0.00 87 1012.1
20260508063055 44 0 1.0 4.0 0.00 0.15 0.00 87 1012.1
20260508062049 44 17 1.0 4.0 0.00 0.15 0.00 88 1012.0
20260508061024 43 24 2.0 6.0 0.00 0.15 0.00 88 1011.9
20260508060018 43 27 3.0 4.0 0.00 0.15 0.00 88 1011.9
20260508055115 44 45 3.0 6.0 0.00 0.15 0.00 88 1011.8
20260508054109 44 343 0.0 2.0 0.00 0.15 0.00 88 1011.8
20260508053104 44 30 1.0 4.0 0.00 0.15 0.00 88 1011.6
20260508052059 44 20 3.0 4.0 0.00 0.15 0.00 87 1011.5
20260508051054 45 6 2.0 6.0 0.00 0.15 0.00 86 1011.4
20260508050049 45 39 4.0 8.0 0.00 0.15 0.00 85 1011.1
20260508045104 45 51 5.0 8.0 0.00 0.15 0.00 84 1011.1
20260508044100 45 41 4.0 7.0 0.00 0.15 0.00 83 1011.1
20260508043114 46 40 4.0 7.0 0.00 0.15 0.00 83 1011.0
20260508042029 46 41 3.0 4.0 0.00 0.15 0.00 82 1011.1
20260508041025 47 19 2.0 6.0 0.00 0.15 0.00 79 1011.0
20260508040020 48 39 4.0 7.0 0.00 0.15 0.00 77 1010.9
20260508035114 50 55 6.0 11.0 0.00 0.15 0.00 74 1011.0
20260508034109 49 56 4.0 11.0 0.00 0.15 0.00 77 1011.1
20260508033145 49 47 3.0 4.0 0.00 0.15 0.00 76 1011.2
20260508032059 49 62 6.0 8.0 0.00 0.15 0.00 76 1011.1
20260508031055 49 104 5.0 8.0 0.00 0.15 0.00 76 1011.2
20260508030050 49 72 4.0 8.0 0.00 0.15 0.00 76 1011.3
20260508025045 49 89 4.0 9.0 0.00 0.15 0.00 76 1011.4
20260508024101 49 196 3.0 9.0 0.00 0.15 0.00 76 1011.5
20260508023035 49 139 6.0 13.0 0.00 0.15 0.00 75 1011.6
20260508022030 49 106 6.0 11.0 0.00 0.15 0.00 76 1011.5
20260508021025 49 127 3.0 9.0 0.00 0.15 0.00 76 1011.7
20260508020021 49 111 3.0 8.0 0.00 0.15 0.00 76 1011.8
20260508015135 49 120 5.0 9.0 0.00 0.15 0.00 75 1011.7
20260508014111 49 127 6.0 11.0 0.00 0.15 0.00 75 1011.8
20260508013105 49 99 7.0 11.0 0.00 0.15 0.00 75 1011.9
20260508012101 50 132 8.0 13.0 0.00 0.15 0.00 75 1011.9
20260508011055 50 145 8.0 17.0 0.00 0.15 0.00 76 1012.2
20260508010051 50 123 7.0 13.0 0.00 0.15 0.00 76 1012.4
20260508005045 50 151 9.0 17.0 0.00 0.15 0.00 76 1012.5
20260508004040 50 113 7.0 14.0 0.00 0.15 0.00 77 1012.4
20260508003056 50 132 7.0 15.0 0.00 0.15 0.00 77 1012.5
20260508002030 50 138 8.0 15.0 0.00 0.15 0.00 77 1012.5
20260508001026 50 121 5.0 11.0 0.00 0.15 0.00 77 1012.7
20260508000021 50 100 5.0 9.0 0.00 0.15 0.00 77 1012.7
20260507235036 50 133 8.0 16.0 0.00 0.15 0.00 77 1012.7
20260507234111 50 117 7.0 14.0 0.00 0.15 0.00 77 1012.6
20260507233106 50 136 4.0 11.0 0.00 0.15 0.00 78 1012.7
20260507232141 50 144 4.0 9.0 0.00 0.15 0.00 78 1012.6
20260507231056 50 172 4.0 8.0 0.00 0.15 0.00 78 1012.8
20260507230051 50 188 1.0 4.0 0.00 0.15 0.00 78 1012.9
20260507225046 50 164 2.0 6.0 0.00 0.15 0.00 79 1013.0
20260507224042 49 180 0.0 4.0 0.00 0.15 0.00 80 1013.1
20260507223037 49 203 0.0 2.0 0.00 0.15 0.00 80 1013.1
20260507222032 50 138 1.0 2.0 0.00 0.15 0.00 79 1013.1
20260507221027 50 74 2.0 6.0 0.00 0.15 0.00 79 1013.0
20260507220022 50 52 2.0 4.0 0.00 0.15 0.00 79 1013.1
20260507215016 49 45 3.0 7.0 0.00 0.15 0.15 81 1013.1
20260507214112 49 315 0.0 2.0 0.00 0.15 0.15 81 1013.1
20260507213107 49 248 0.0 2.0 0.00 0.15 0.15 81 1013.1
20260507212102 49 0.0 2.0 0.00 0.15 0.15 80 1013.2
20260507211117 49 0.0 0.0 0.00 0.15 0.15 79 1013.2
20260507210052 49 64 1.0 2.0 0.00 0.15 0.15 80 1013.0
20260507205047 49 113 0.0 2.0 0.00 0.15 0.15 81 1013.0
20260507204042 50 135 0.0 2.0 0.00 0.15 0.15 81 1012.8
20260507203057 50 106 1.0 4.0 0.00 0.15 0.15 82 1012.6
20260507202032 50 75 3.0 4.0 0.00 0.15 0.15 82 1012.4
20260507201047 50 68 4.0 8.0 0.00 0.15 0.15 81 1012.2
20260507200022 51 45 3.0 6.0 0.00 0.15 0.15 81 1012.2
20260507195017 51 43 3.0 4.0 0.00 0.15 0.15 80 1012.0
20260507194113 51 45 5.0 8.0 0.00 0.15 0.15 79 1011.8
20260507193107 51 45 5.0 8.0 0.00 0.15 0.15 79 1011.7
20260507192102 51 36 3.0 7.0 0.00 0.15 0.15 79 1011.8
20260507191057 51 42 3.0 8.0 0.00 0.15 0.15 78 1011.8
20260507190053 52 45 6.0 8.0 0.00 0.15 0.15 77 1011.6
20260507185049 52 41 6.0 9.0 0.00 0.15 0.15 78 1011.7
20260507184104 52 45 7.0 11.0 0.00 0.15 0.15 75 1011.6
20260507183058 53 45 8.0 11.0 0.00 0.15 0.15 74 1011.6
20260507182033 53 11 6.0 9.0 0.00 0.15 0.15 75 1011.4
20260507181028 54 45 6.0 11.0 0.00 0.15 0.15 73 1011.4
20260507180023 54 38 4.0 6.0 0.00 0.15 0.15 72 1011.3
20260507175038 54 36 4.0 8.0 0.00 0.15 0.15 72 1011.4
20260507174113 54 45 5.0 9.0 0.00 0.15 0.15 74 1011.5
20260507173129 53 42 8.0 11.0 0.00 0.15 0.15 73 1011.6
20260507172103 53 38 7.0 11.0 0.00 0.15 0.15 75 1011.8
20260507171058 52 55 8.0 15.0 0.00 0.15 0.15 78 1011.7
20260507170053 51 50 8.0 14.0 0.00 0.15 0.15 79 1011.9
20260507165049 51 42 10.0 14.0 0.00 0.15 0.15 78 1011.8
20260507164043 51 45 10.0 13.0 0.00 0.15 0.15 78 1012.0
20260507163038 51 45 10.0 13.0 0.00 0.15 0.15 80 1012.0
20260507162033 51 49 7.0 11.0 0.00 0.15 0.15 84 1012.1
20260507161029 50 45 6.0 8.0 0.00 0.15 0.15 84 1012.4
20260507160023 50 4 4.0 8.0 0.02 0.15 0.15 86 1012.5
20260507155040 49 38 2.0 6.0 0.05 0.15 0.15 88 1012.5
20260507154114 48 8 3.0 8.0 0.13 0.15 0.15 88 1012.5
20260507153109 48 357 5.0 9.0 0.15 0.15 0.15 88 1012.4
20260507152104 48 41 3.0 6.0 0.15 0.15 0.15 88 1012.6
20260507151059 49 32 5.0 9.0 0.15 0.15 0.15 83 1012.3
20260507150054 50 329 4.0 7.0 0.13 0.13 0.13 79 1012.7
20260507145050 51 50 7.0 11.0 0.11 0.11 0.11 72 1012.7
20260507144044 52 184 10.0 16.0 0.02 0.02 0.02 69 1012.6
20260507143039 51 295 8.0 16.0 0.00 0.00 0.00 70 1011.1
20260507142034 53 6 10.0 17.0 0.00 0.00 0.00 63 1010.8
20260507141029 54 6 11.0 20.0 0.00 0.00 0.00 60 1011.0
20260507140024 56 321 15.0 36.0 0.00 0.00 0.00 60 1010.8